Free Severe Weather Alerts by Email and Text Message   

 
Follow iAlert.com on twitter @ialertcom
Search For Active Alerts in Your Area  
  Hi Guest:  [ Sign-up / Services ] [ Login ]

Current weather by "City, St" or "zip code"  

 

Advertise Here

Hazardous Weather Conditions

No active alerts for HOUSTON, TEXAS

Current Conditions: HOUSTON, TEXAS

Fair


58.0 F

Last Updated on Jan 23 2018, 10:53 am CST
Humidity: 27%
Wind Speed: N 10.4 mph
Barometer 30.31 in
Dewpoint: 24.1 F
Visibility: 10.00 mi
Precip: --
Heat Index: NA
Wind Chill: 56 F
Current conditions at:

Houston, Hooks Memorial Airport, TX (KDWH)

Lat: 30.06 Lon: -95.556

Local Radar Image active severe weather and emergency alerts image image weather storm and storm spotter reports image weather observation monitoring service image
Local
Radar
Active
Alerts
Storm Reports Weather
Monitoring

Weather Alert Notification Services


ialert severe weather and emergency alerts by text message and email ialert daily weather forecast by email and text message service ialert real-time weather-observation monitoring and alert notification service ialert storm report monitoring alert notification

Observation History for HOUSTON, TEXAS


Time Wind
(mph)
Vis
(mi)
Weather Precip (in) Temperature (F) Relative
Humidity
Wind
Chill
(°F)
Heat
Index
(°F)
Pressure
Air Dwpt altimeter
(in)
sea level
(mb)
10:53 am CST N 10.4 10.00 Fair -- 58.0 24.1 27% 56 NA 30.31 1026.4
9:53 am CST N 6.9 10.00 Fair -- 54.0 30.0 40% 52 NA 30.31 1026.1
8:53 am CST NW 4.6 10.00 Fair -- 46.0 32.0 58% 44 NA 30.29 1025.6
7:53 am CST NW 3.5 10.00 Fair -- 39.0 30.9 73% NA NA 30.26 1024.8
6:53 am CST NW 3.5 10.00 Fair -- 35.0 33.1 93% NA NA 30.24 1024.1
5:53 am CST N 0.0 10.00 Fair -- 34.0 33.1 97% NA NA 30.22 1023.4
4:53 am CST N 0.0 10.00 Fair -- 36.0 34.0 93% NA NA 30.20 1022.6
3:53 am CST N 0.0 10.00 Fair -- 36.0 34.0 93% NA NA 30.18 1022.0
2:53 am CST N 0.0 10.00 Fair -- 37.0 35.1 93% NA NA 30.18 1022.0
1:53 am CST N 0.0 10.00 Fair -- 37.0 35.1 93% NA NA 30.17 1021.7
12:53 am CST N 0.0 10.00 Fair -- 39.0 35.1 86% NA NA 30.17 1021.6
11:53 pm CST N 0.0 10.00 Fair -- 41.0 34.0 76% NA NA 30.17 1021.4
10:53 pm CST N 0.0 10.00 Fair -- 42.0 36.0 79% NA NA 30.15 1021.0
9:53 pm CST W 4.6 7.00 Fair -- 49.0 28.9 46% 47 NA 30.14 1020.3
8:53 pm CST NW 5.8 10.00 Fair -- 49.0 33.1 55% 47 NA 30.11 1019.5
7:53 pm CST N 0.0 10.00 Fair -- 48.0 34.0 58% NA NA 30.11 1019.3
6:53 pm CST N 0.0 10.00 Fair -- 52.0 30.9 45% NA NA 30.09 1018.8
5:53 pm CST NW 5.8 10.00 Fair -- 58.0 28.0 32% 57 NA 30.06 1017.9
4:53 pm CST NW 15.0 G 23.0 10.00 Fair -- 62.0 27.0 26% 60 NA 30.05 1017.4
3:53 pm CST NW 15.0 G 23.0 10.00 Fair -- 63.0 26.1 25% 61 NA 30.03 1016.7
2:53 pm CST N 13.8 G 21.9 10.00 Fair -- 65.0 26.1 23% NA NA 30.01 1016.2
1:53 pm CST N 13.8 G 21.9 10.00 Fair -- 64.0 28.0 26% NA NA 30.03 1016.7
12:53 pm CST NW 15.0 G 21.9 10.00 Fair -- 63.0 28.9 28% 61 NA 30.05 1017.3
11:53 am CST NW 13.8 G 21.9 10.00 Fair -- 62.0 30.9 31% 60 NA 30.08 1018.4

Regional Weather Observation:


John Dunn Helistop, TX (KMCJ)

Fair
57.0 F

Houston, Houston Hobby Airport, TX (KHOU)

Mostly Cloudy
59.0 F

Houston Southwest Airport, TX (KAXH)

Fair
60.0 F

Conroe, Montgomery County Airport, TX (KCXO)

Fair
54.0 F

Houston, Pearland Regional Airport, TX (KLVJ)

Fair
60.0 F

Cleveland, TX (K6R3)

Fair
54.0 F

Advertise Here


Advertise Here